Regional Weather Roundup
Issued by NWS Albany, NY

Home | Current Version | Previous Version | Text Only | Print | Product List | Glossary On
Versions: 1 2 3 4 5 6 7 8 9 10 11 12 13 14 15 16 17 18 19 20 21 22 23 24 25 26 27 28 29 30 31 32 33 34 35 36 37 38 39 40 41 42 43 44 45 46 47 48 49 50
311
ASUS41 KALY 201310
RWRALY

NEW YORK STATE HOURLY WEATHER ROUNDUP
NATIONAL WEATHER SERVICE ALBANY NY
800 AM EST SAT JAN 20 2018

NOTE: "FAIR" INDICATES FEW OR NO CLOUDS BELOW 12,000 FEET WITH NO
SIGNIFICANT WEATHER AND/OR NO OBSTRUCTIONS TO VISIBILITY.

NYZ032-033-038>043-046>054-057>066-NYZ062>081-082-084-201400-
EAST


CITY           SKY/WX    TMP DP  RH WIND       PRES   REMARKS
ALBANY         MOCLDY    32  20  61 S6        29.77R WCI  26
GLENS FALLS    FAIR      27  20  75 S9        29.72R WCI  18
POUGHKEEPSIE   FAIR      34  21  59 SW7       29.82R WCI  28
NEWBURGH       PTCLDY    36  23  60 W6        29.82S WCI  31
MONTGOMERY     FAIR      32  21  64 SW10      29.80S WCI  24
WHITE PLAINS   FAIR      37  21  52 W9        29.83S WCI  30
ISLIP          MOCLDY    39  25  57 SW14      29.85R WCI  31
NEW YORK CITY  FAIR      40  21  46 SW9G23    29.87R WCI  34
CENTRAL PARK   FAIR      40  21  46 W10G21    29.89R WCI  33
$$

NYZ005>009-017-018-044>046-055-056-201400-
CENTRAL


CITY           SKY/WX    TMP DP  RH WIND       PRES   REMARKS
FULTON         FAIR      36  22  56 SW6       29.78R WCI  31
SYRACUSE       MOCLDY    36  23  59 SW14G21   29.78R WCI  27
ROME           FAIR      14  13  95 NW3       29.79R
ELMIRA         FAIR      38  23  55 W9        29.83R WCI  31
BINGHAMTON     FAIR      32  20  61 W14       29.79R WCI  22
MONTICELLO     FAIR      30  21  69 W8        29.80R WCI  22
$$

NYZ026>034-041>043-087-201400-
NORTH


CITY           SKY/WX    TMP DP  RH WIND       PRES   REMARKS
WATERTOWN      FAIR      37  29  72 SW23G32   29.72R WCI  26
FORT DRUM      NOT AVBL
OGDENSBURG     FAIR      38  30  73 SW18G28   29.64R WCI  28
MASSENA        FAIR      39  29  67 SW23G35   29.62R WCI  28
SARANAC LAKE   CLOUDY    33  25  72 SW8G22    29.60R WCI  26
PLATTSBURGH    MOCLDY    40  24  53 MISG      29.61R
$$

NYZ001>004-010>016-019>021-085-201400-
WEST


CITY           SKY/WX    TMP DP  RH WIND       PRES   REMARKS
NIAGARA FALLS  FAIR      37  25  61 W29G38    29.81R WCI  25
BUFFALO        MOCLDY    37  26  64 SW23G37   29.82R WCI  26
DUNKIRK        FAIR      47  24  40 SW16      29.88R
JAMESTOWN      FAIR      30  22  72 SW13      29.87R WCI  20
WELLSVILLE     FAIR      32  22  66 W14G24    29.82R WCI  22
ROCHESTER      MOCLDY    40  26  57 W23G37    29.79R WCI  30
PENN YAN       FAIR      38  21  50 SW16G24   29.79R WCI  29
$$

             KEY
       WCI = WIND CHILL INDEX
       VSB = VISIBILITY
       HX  = HEAT INDEX
$$




USA.gov is the U.S. government's official web portal to all federal, state and local government web resources and services.